Change the Weather History Date:

Sunday, November 18, 2012

  Actual Average (KBNO) Record (KBNO)
Temperature  
Mean Temperature 38 °F 32 °F  
Max Temperature 44 °F 44 °F 61 °F (2008)
Min Temperature 32 °F 21 °F -6 °F (1985)
Degree Days  
Heating Degree Days 27 33  
Month to date heating degree days 526  
Since 1 July heating degree days 1576  
Cooling Degree Days 0 0  
Month to date cooling degree days 0  
Year to date cooling degree days 215  
Moisture  
Dew Point 29 °F    
Average Humidity 73    
Maximum Humidity 93    
Minimum Humidity 53    
Precipitation  
Precipitation 0.02 in 0.04 in 0.48 in (1968)
Month to date precipitation 0.66  
Year to date precipitation 8.86  
Sea Level Pressure  
Sea Level Pressure 29.92 in    
Wind  
Wind Speed 10 mph (SSE)    
Max Wind Speed 32 mph    
Max Gust Speed 37 mph    
Visibility 10 miles    
Events Rain    
T = Trace of Precipitation, MM = Missing Value Source: NWS Daily Summary

Daily Weather History Graph

Daily Weather History Graph

Search for Another Location

Airport or City:

Trip Planner

Search our weather history database for the weather conditions in past years. The results will help you decide how hot, cold, wet, or windy it might be!

Date:

Astronomy

Nov. 18, 2012 Rise Set
Actual Time 6:56 AM PST 4:25 PM PST
Civil Twilight 6:24 AM PST 4:56 PM PST
Nautical Twilight 5:49 AM PST 5:32 PM PST
Astronomical Twilight 5:14 AM PST 6:06 PM PST
Moon 11:24 AM PST (11/18) 9:54 PM PST (11/18)
Length of Visible Light 10h 32m
Length of Day
9h 28m
Waxing Crescent, 31% of the Moon is Illuminated
Nov 18
Waxing Crescent
Nov 20
First Quarter
Nov 28
Full
Dec 6
Last Quarter
Dec 13
New

Hourly Weather History & Observations

Time (PST) Temp. Windchill Dew Point Humidity Pressure Visibility Wind Dir Wind Speed Gust Speed Precip Events Conditions
12:15 AM 33.8 °F 30.8 °F 32.0 °F 93% 29.84 in 10.0 mi SW 3.5 mph - N/A   Clear
12:35 AM 33.8 °F 30.8 °F 30.2 °F 87% 29.85 in 10.0 mi SSW 3.5 mph - N/A   Clear
12:55 AM 33.8 °F 29.6 °F 30.2 °F 87% 29.85 in 10.0 mi SW 4.6 mph - N/A   Clear
1:15 AM 35.6 °F 27.1 °F 30.2 °F 81% 29.85 in 10.0 mi SW 12.7 mph - N/A   Clear
1:35 AM 33.8 °F 27.7 °F 28.4 °F 81% 29.85 in 10.0 mi SW 6.9 mph - N/A   Clear
1:55 AM 33.8 °F 23.5 °F 28.4 °F 81% 29.86 in 10.0 mi SSW 16.1 mph - N/A   Clear
2:15 AM 33.8 °F 25.3 °F 28.4 °F 81% 29.87 in 10.0 mi SW 11.5 mph - N/A   Clear
2:35 AM 35.6 °F 26.2 °F 28.4 °F 75% 29.88 in 10.0 mi South 15.0 mph - N/A   Clear
2:55 AM 35.6 °F 28.0 °F 28.4 °F 75% 29.88 in 10.0 mi South 10.4 mph 18.4 mph N/A   Clear
3:15 AM 35.6 °F 27.5 °F 26.6 °F 70% 29.89 in 10.0 mi South 11.5 mph 17.3 mph N/A   Clear
3:35 AM 33.8 °F 27.0 °F 26.6 °F 75% 29.90 in 10.0 mi SW 8.1 mph - N/A   Clear
3:55 AM 35.6 °F 27.1 °F 26.6 °F 70% 29.90 in 10.0 mi South 12.7 mph - N/A   Clear
4:15 AM 32.0 °F 27.5 °F 28.4 °F 87% 29.91 in 10.0 mi NNE 4.6 mph - N/A   Clear
4:35 AM 33.8 °F 24.3 °F 26.6 °F 75% 29.92 in 10.0 mi South 13.8 mph - N/A   Clear
4:55 AM 33.8 °F - 26.6 °F 75% 29.93 in 10.0 mi Calm Calm - N/A   Clear
5:15 AM 32.0 °F 27.5 °F 26.6 °F 80% 29.92 in 10.0 mi East 4.6 mph - N/A   Clear
5:35 AM 32.0 °F 25.6 °F 28.4 °F 87% 29.93 in 10.0 mi ESE 6.9 mph 19.6 mph N/A   Clear
5:55 AM 32.0 °F 23.6 °F 28.4 °F 87% 29.94 in 10.0 mi East 10.4 mph - N/A   Clear
6:15 AM 32.0 °F 24.8 °F 28.4 °F 87% 29.94 in 10.0 mi SE 8.1 mph - N/A   Clear
6:35 AM 32.0 °F 26.4 °F 28.4 °F 87% 29.94 in 10.0 mi ENE 5.8 mph - N/A   Scattered Clouds
6:55 AM 32.0 °F 23.0 °F 28.4 °F 87% 29.96 in 10.0 mi East 11.5 mph - N/A   Clear
7:15 AM 32.0 °F 24.8 °F 28.4 °F 87% 29.95 in 10.0 mi ESE 8.1 mph - N/A   Clear
7:35 AM 32.0 °F 23.0 °F 28.4 °F 87% 29.95 in 10.0 mi East 11.5 mph - N/A   Clear
7:55 AM 32.0 °F 24.8 °F 28.4 °F 87% 29.96 in 10.0 mi East 8.1 mph - N/A   Clear
8:15 AM 32.0 °F 26.4 °F 28.4 °F 87% 29.96 in 10.0 mi ENE 5.8 mph - N/A   Clear
8:35 AM 32.0 °F 25.6 °F 28.4 °F 87% 29.96 in 10.0 mi East 6.9 mph - N/A   Mostly Cloudy
8:55 AM 32.0 °F 27.5 °F 28.4 °F 87% 29.97 in 10.0 mi ENE 4.6 mph - N/A   Mostly Cloudy
9:15 AM 33.8 °F 28.6 °F 28.4 °F 81% 29.96 in 10.0 mi East 5.8 mph - N/A   Mostly Cloudy
9:35 AM 33.8 °F 28.6 °F 30.2 °F 87% 29.96 in 10.0 mi ENE 5.8 mph - N/A   Overcast
9:55 AM 35.6 °F 29.2 °F 30.2 °F 81% 29.96 in 10.0 mi NE 8.1 mph - N/A   Overcast
10:15 AM 35.6 °F 28.0 °F 30.2 °F 81% 29.97 in 10.0 mi ENE 10.4 mph - N/A   Mostly Cloudy
10:35 AM 37.4 °F 32.1 °F 30.2 °F 75% 29.97 in 10.0 mi SE 6.9 mph - N/A   Scattered Clouds
10:55 AM 37.4 °F 32.8 °F 30.2 °F 75% 29.96 in 10.0 mi ENE 5.8 mph - N/A   Mostly Cloudy
11:15 AM 37.4 °F 33.8 °F 30.2 °F 75% 29.95 in 10.0 mi ENE 4.6 mph - N/A   Mostly Cloudy
11:35 AM 37.4 °F 33.8 °F 30.2 °F 75% 29.94 in 10.0 mi East 4.6 mph - N/A   Mostly Cloudy
11:55 AM 41.0 °F 35.8 °F 32.0 °F 70% 29.94 in 10.0 mi East 8.1 mph - N/A   Mostly Cloudy
12:15 PM 42.8 °F 39.3 °F 30.2 °F 61% 29.93 in 10.0 mi East 5.8 mph - N/A   Scattered Clouds
12:35 PM 44.6 °F 36.6 °F 30.2 °F 57% 29.92 in 10.0 mi SSE 19.6 mph 26.5 mph N/A   Scattered Clouds
12:55 PM 44.6 °F 36.1 °F 30.2 °F 57% 29.92 in 10.0 mi SSE 21.9 mph 28.8 mph N/A   Scattered Clouds
1:15 PM 44.6 °F 35.9 °F 30.2 °F 57% 29.92 in 10.0 mi South 23.0 mph 28.8 mph N/A   Clear
1:35 PM 44.6 °F 37.2 °F 30.2 °F 57% 29.91 in 10.0 mi South 17.3 mph 25.3 mph N/A   Clear
1:55 PM 42.8 °F 31.9 °F 28.4 °F 57% 29.90 in 10.0 mi South 32.2 mph 35.7 mph N/A   Clear
2:15 PM 42.8 °F 34.0 °F 26.6 °F 53% 29.91 in 10.0 mi South 20.7 mph 34.5 mph N/A   Clear
2:35 PM 42.8 °F 34.0 °F 26.6 °F 53% 29.91 in 10.0 mi SSE 20.7 mph 26.5 mph N/A   Clear
2:55 PM 42.8 °F 36.6 °F 26.6 °F 53% 29.91 in 10.0 mi SSE 11.5 mph 24.2 mph N/A   Scattered Clouds
3:15 PM 42.8 °F 35.4 °F 26.6 °F 53% 29.91 in 10.0 mi SSE 15.0 mph 24.2 mph N/A   Scattered Clouds
3:35 PM 42.8 °F 34.8 °F 26.6 °F 53% 29.90 in 10.0 mi South 17.3 mph 24.2 mph N/A   Scattered Clouds
3:55 PM 42.8 °F 34.0 °F 28.4 °F 57% 29.91 in 10.0 mi SSE 20.7 mph 32.2 mph N/A   Clear
4:15 PM 42.8 °F 37.0 °F 28.4 °F 57% 29.91 in 10.0 mi South 10.4 mph 27.6 mph N/A   Scattered Clouds
4:35 PM 42.8 °F 37.0 °F 28.4 °F 57% 29.92 in 10.0 mi South 10.4 mph 18.4 mph N/A   Mostly Cloudy
4:55 PM 42.8 °F 35.1 °F 28.4 °F 57% 29.92 in 10.0 mi South 16.1 mph 28.8 mph N/A   Overcast
5:15 PM 42.8 °F 35.8 °F 28.4 °F 57% 29.92 in 10.0 mi South 13.8 mph 18.4 mph N/A   Mostly Cloudy
5:35 PM 42.8 °F 35.8 °F 30.2 °F 61% 29.92 in 10.0 mi South 13.8 mph 20.7 mph N/A   Scattered Clouds
5:55 PM 42.8 °F 35.1 °F 30.2 °F 61% 29.92 in 10.0 mi SSW 16.1 mph 25.3 mph N/A   Clear
6:15 PM 42.8 °F 36.2 °F 30.2 °F 61% 29.92 in 10.0 mi SSW 12.7 mph 18.4 mph N/A   Scattered Clouds
6:35 PM 42.8 °F 36.2 °F 30.2 °F 61% 29.92 in 10.0 mi WSW 12.7 mph 19.6 mph N/A   Mostly Cloudy
6:55 PM 42.8 °F 41.1 °F 30.2 °F 61% 29.93 in 10.0 mi NNE 3.5 mph 17.3 mph N/A   Overcast
7:15 PM 42.8 °F 36.2 °F 30.2 °F 61% 29.92 in 10.0 mi South 12.7 mph 20.7 mph N/A   Overcast
7:35 PM 41.0 °F 32.8 °F 32.0 °F 70% 29.92 in 10.0 mi South 16.1 mph 32.2 mph N/A   Light Drizzle
7:55 PM 41.0 °F 36.4 °F 32.0 °F 70% 29.93 in 10.0 mi SSW 6.9 mph 24.2 mph N/A Rain Rain
8:15 PM 39.2 °F 30.5 °F 32.0 °F 75% 29.91 in 10.0 mi South 16.1 mph 28.8 mph N/A   Drizzle
8:35 PM 41.0 °F 30.2 °F 32.0 °F 70% 29.92 in 10.0 mi South 27.6 mph 36.8 mph N/A   Drizzle
9:15 PM 39.2 °F 34.2 °F 32.0 °F 75% 29.94 in 10.0 mi SE 6.9 mph 24.2 mph N/A Rain Rain
9:35 PM 37.4 °F 28.9 °F 32.0 °F 81% 29.94 in 5.0 mi WSW 13.8 mph 32.2 mph 0.01 in Rain Light Rain
9:55 PM 37.4 °F 28.5 °F 32.0 °F 81% 29.94 in 7.0 mi South 15.0 mph 21.9 mph 0.02 in Rain Rain
10:15 PM 39.2 °F 32.5 °F 32.0 °F 75% 29.94 in 10.0 mi West 10.4 mph 25.3 mph N/A   Drizzle
10:35 PM 37.4 °F 32.1 °F 32.0 °F 81% 29.95 in 10.0 mi NNW 6.9 mph - N/A   Overcast
10:55 PM 39.2 °F 33.6 °F 32.0 °F 75% 29.95 in 10.0 mi North 8.1 mph - N/A   Overcast
11:15 PM 41.0 °F 38.0 °F 32.0 °F 70% 29.94 in 10.0 mi WNW 4.6 mph - N/A   Scattered Clouds